Regional Weather Roundup
Issued by NWS

Home | Current Version | Previous Version | Text Only | Print | Product List | Glossary Off
Versions: 1 2 3 4 5 6 7 8 9 10 11 12 13 14 15 16 17 18 19 20 21 22 23 24 25 26 27 28 29 30 31 32 33 34 35 36 37 38 39 40 41 42 43 44 45 46 47 48 49 50

000
ASUS43 KDMX 171207
RWRIA

WEATHER ROUNDUP FOR IOWA
NATIONAL WEATHER SERVICE DES MOINES IA
700 AM CDT WED SEP 17 2014

NOTE: "FAIR" INDICATES FEW OR NO CLOUDS BELOW 12,000 FEET WITH NO
SIGNIFICANT WEATHER AND/OR OBSTRUCTIONS TO VISIBILITY.

* - THESE STATIONS ARE NOT NWS STATIONS...THUS NOT UNDER NWS
QUALITY CONTROL.  THEY ALSO DO NOT REPORT WEATHER SUCH
AS PRECIPITATION OR FOG.

IAZ001>003-012>014-020>022-031>034-043>046-171300-
   NORTHWEST IOWA

CITY           SKY/WX    TMP DP  RH WIND       PRES   REMARKS
CARROLL *      CLOUDY    52  50  93 CALM      29.95S
CHEROKEE *     CLEAR     48  48 100 CALM      29.94S
DENISON *      PTCLDY    52  52 100 CALM      29.93S
LE MARS *        N/A     48  48 100 CALM      29.93S
ORANGE CITY *  CLEAR     52  48  87 SE3       29.93R
SHELDON *      CLEAR     46  46 100 E5        29.92S
SIOUX CITY     CLEAR     53  51  93 SE5       29.93S
6HR MIN TEMP:  53; 6HR MAX TEMP:  58;

SPENCER        CLEAR     48  46  93 SE5       29.95S
6HR MIN TEMP:  48; 6HR MAX TEMP:  55;

STORM LAKE *   CLEAR     50  50 100 S8        29.94S
$$

IAZ055>058-069>071-079>083-090>094-171300-
   SOUTHWEST IOWA

CITY           SKY/WX    TMP DP  RH WIND       PRES   REMARKS
ATLANTIC *     CLOUDY    55  54  94 NE3       29.94S
AUDUBON *      MOCLDY    54  46  76 CALM      29.96S
CLARINDA *     CLOUDY    59  57  94 CALM      29.95S
COUNCIL BLFS * CLEAR     55  55 100 E5        29.92S
CRESTON *      MOCLDY    54  54 100 SE3       29.95S
HARLAN  *      CLEAR     54  54 100 CALM      29.97F
LAMONI         CLOUDY    57  55  93 CALM      29.96S
6HR MIN TEMP:  56; 6HR MAX TEMP:  57; 6HR PCP:  0.03;

SHENANDOAH *     N/A     55  55 100 NE5       29.93F
$$

IAZ047>049-059>061-072>074-084-171300-
   CENTRAL IOWA

CITY           SKY/WX    TMP DP  RH WIND       PRES   REMARKS
AMES           CLOUDY    51  50  96 CALM      29.97F
6HR MIN TEMP:  45; 6HR MAX TEMP:  51;

ANKENY *       CLOUDY    55  52  88 CALM      29.96F
CHARITON *     CLOUDY    55  54  94 SE6       29.96F
DES MOINES     CLOUDY    58  50  75 SE5       29.96F
6HR MIN TEMP:  54; 6HR MAX TEMP:  58;

GRINNELL*      CLOUDY    52  48  87 E3        29.98F
KNOXVILLE *    CLOUDY    54  50  87 CALM      29.95F
MARSHALLTOWN   CLEAR     45  44  97 E5        29.98S
6HR MIN TEMP:  45; 6HR MAX TEMP:  53;

PELLA *        MOCLDY    53  51  92 E3        29.98F
PERRY *        CLOUDY    54  53  96 CALM      29.96S
$$

IAZ004>006-015-016-023>025-035-036-171300-
   NORTH CENTRAL IOWA

CITY           SKY/WX    TMP DP  RH WIND       PRES   REMARKS
ALGONA *       PTCLDY    48  46  93 SE5       29.97S
CLARION *        N/A     48  46  93 SE5       29.97S
ESTHERVILLE    CLEAR     47  46  97 S5        29.95S
6HR MIN TEMP:  46; 6HR MAX TEMP:  53;

FORT DODGE *   CLEAR     46  43  87 E5        29.97R
MASON CITY     CLOUDY    49  47  93 S7        29.99F
6HR MIN TEMP:  42; 6HR MAX TEMP:  50;

FOREST CITY *  CLOUDY    50  50 100 S5        29.98R
IOWA FALLS *     N/A     45  43  93 CALM      29.99F
$$

IAZ007>011-017>019-026>030-037>042-050>054-066-171300-
   NORTHEAST IOWA

CITY           SKY/WX    TMP DP  RH WIND       PRES   REMARKS
CEDAR RAPIDS   PTCLDY    44  44 100 E5        30.00F
6HR MIN TEMP:  44; 6HR MAX TEMP:  49;

CHARLES CITY * CLOUDY    48  45  87 SE5       30.00S
CLINTON *      PTCLDY    43  39  87 E5        30.06S
DECORAH *      PTCLDY    45  43  93 S3        30.00S
DUBUQUE        MOCLDY    45  43  93 CALM      30.03S
6HR MIN TEMP:  43; 6HR MAX TEMP:  47;

MONTICELLO *   CLEAR     43  43 100 CALM      30.02S
OELWEIN *      CLOUDY    50  48  93 SE7       30.01S
WATERLOO       MOCLDY    45  44  97 CALM      30.00S
6HR MIN TEMP:  45; 6HR MAX TEMP:  51;

$$

IAZ064-065-067-068-078-171300-
   EAST CENTRAL IOWA

CITY           SKY/WX    TMP DP  RH WIND       PRES   REMARKS
DAVENPORT      CLEAR     46  43  89 SE3       30.03S
6HR MIN TEMP:  45; 6HR MAX TEMP:  48;

IOWA CITY      PTCLDY    48  46  93 CALM      30.02F
6HR MIN TEMP:  45; 6HR MAX TEMP:  50;

MT. PLEASANT * CLOUDY    52  51  95 CALM      30.00F
MUSCATINE *    PTCLDY    48  46  93 CALM      30.02F
QUAD CITIES    PTCLDY    46  43  89 CALM      30.03S
6HR MIN TEMP:  44; 6HR MAX TEMP:  49;

$$

IAZ062-063-075>077-085>089-095>099-171300-
   SOUTHEAST IOWA

CITY           SKY/WX    TMP DP  RH WIND       PRES   REMARKS
BURLINGTON     CLOUDY    53  52  96 SE3       30.01F
6HR MIN TEMP:  47; 6HR MAX TEMP:  53;

FAIRFIELD *    CLOUDY    54  50  87 SE6       29.99F
FORT MADISON * CLOUDY    55  54  94 SE3       30.00F
KEOKUK *       CLOUDY    55  54  94 E3        29.99F FOG
OSKALOOSA *    CLOUDY    53  51  94 SE3       29.99S
CENTERVILLE *  CLOUDY    55  55 100 E3        29.98S
OTTUMWA        CLOUDY    54  51  90 E5        29.98F
6HR MIN TEMP:  47; 6HR MAX TEMP:  54;

WASHINGTON *   CLOUDY    50  50 100 CALM      30.00F
$$

ABBREVIATIONS USED IN REMARKS
   TC - TEMPERATURES IN CELSIUS
  WCI - WIND CHILL INDEX
   HX - HEAT INDEX
  VSB - VISIBILITY
$$




USA.gov is the U.S. government's official web portal to all federal, state and local government web resources and services.